| time (UTC) | temp F | wind direction | speed MPH | gust MPH | rain 1hr in | rain 24hr in | rain mn in | humidity % | barometer mb |
| 20260508001723 | 52 | 0.0 | 0.0 | 0.00 | 0.00 | 0.00 | 10 | 1017.6 | |
| 20260508000822 | 52 | 0.0 | 0.0 | 0.00 | 0.00 | 0.00 | 10 | 1017.6 | |
| 20260507235922 | 52 | 0.0 | 0.0 | 0.00 | 0.00 | 0.00 | 10 | 1017.7 | |
| 20260507235022 | 53 | 0.0 | 0.0 | 0.00 | 0.00 | 0.00 | 10 | 1017.7 | |
| 20260507234123 | 53 | 0.0 | 0.0 | 0.00 | 0.00 | 0.00 | 10 | 1017.7 | |
| 20260507233223 | 53 | 0.0 | 0.0 | 0.00 | 0.00 | 0.00 | 10 | 1017.7 | |
| 20260507232323 | 53 | 0.0 | 0.0 | 0.00 | 0.00 | 0.00 | 10 | 1017.7 | |
| 20260507231423 | 53 | 0.0 | 0.0 | 0.00 | 0.00 | 0.00 | 10 | 1017.6 | |
| 20260507230523 | 54 | 0.0 | 0.0 | 0.00 | 0.00 | 0.00 | 10 | 1017.6 | |
| 20260507225622 | 54 | 0.0 | 0.0 | 0.00 | 0.00 | 0.00 | 10 | 1017.6 | |
| 20260507224723 | 54 | 0.0 | 0.0 | 0.00 | 0.00 | 0.00 | 10 | 1017.6 | |
| 20260507223823 | 54 | 0.0 | 0.0 | 0.00 | 0.00 | 0.00 | 10 | 1017.6 | |
| 20260507222922 | 54 | 0.0 | 0.0 | 0.00 | 0.00 | 0.00 | 10 | 1017.5 | |
| 20260507222022 | 55 | 0.0 | 0.0 | 0.00 | 0.00 | 0.00 | 10 | 1017.5 | |
| 20260507221123 | 55 | 0.0 | 0.0 | 0.00 | 0.00 | 0.00 | 10 | 1017.4 | |
| 20260507220223 | 55 | 0.0 | 0.0 | 0.00 | 0.00 | 0.00 | 10 | 1017.4 | |
| 20260507215339 | 56 | 0.0 | 0.0 | 0.00 | 0.00 | 0.00 | 10 | 1017.3 | |
| 20260507214423 | 56 | 0.0 | 0.0 | 0.00 | 0.00 | 0.00 | 10 | 1017.2 | |
| 20260507213538 | 57 | 0.0 | 0.0 | 0.00 | 0.00 | 0.00 | 10 | 1016.9 | |
| 20260507212622 | 57 | 0.0 | 0.0 | 0.00 | 0.00 | 0.00 | 10 | 1016.8 | |
| 20260507211723 | 57 | 0.0 | 0.0 | 0.00 | 0.00 | 0.00 | 10 | 1016.9 | |
| 20260507210823 | 56 | 0.0 | 0.0 | 0.00 | 0.00 | 0.00 | 10 | 1017.0 | |
| 20260507205923 | 57 | 0.0 | 0.0 | 0.00 | 0.00 | 0.00 | 10 | 1016.9 | |
| 20260507205022 | 56 | 0.0 | 0.0 | 0.00 | 0.00 | 0.00 | 10 | 1017.0 | |
| 20260507204123 | 57 | 0.0 | 0.0 | 0.00 | 0.00 | 0.00 | 10 | 1016.9 | |
| 20260507202323 | 58 | 0.0 | 0.0 | 0.00 | 0.00 | 0.00 | 10 | 1016.8 | |
| 20260507201423 | 58 | 0.0 | 0.0 | 0.00 | 0.00 | 0.00 | 10 | 1016.8 | |
| 20260507200522 | 58 | 0.0 | 0.0 | 0.00 | 0.00 | 0.00 | 10 | 1016.9 | |
| 20260507195625 | 58 | 0.0 | 0.0 | 0.00 | 0.00 | 0.00 | 10 | 1016.9 | |
| 20260507194723 | 59 | 0.0 | 0.0 | 0.00 | 0.00 | 0.00 | 10 | 1016.9 | |
| 20260507193822 | 60 | 0.0 | 0.0 | 0.00 | 0.00 | 0.00 | 10 | 1016.7 | |
| 20260507192923 | 61 | 0.0 | 0.0 | 0.00 | 0.00 | 0.00 | 10 | 1016.5 | |
| 20260507192023 | 61 | 0.0 | 0.0 | 0.00 | 0.00 | 0.00 | 10 | 1016.6 | |
| 20260507191122 | 61 | 0.0 | 0.0 | 0.00 | 0.00 | 0.00 | 10 | 1016.4 | |
| 20260507190222 | 62 | 0.0 | 0.0 | 0.00 | 0.00 | 0.00 | 10 | 1016.3 | |
| 20260507185322 | 62 | 0.0 | 0.0 | 0.00 | 0.00 | 0.00 | 10 | 1016.3 | |
| 20260507184438 | 61 | 0.0 | 0.0 | 0.00 | 0.00 | 0.00 | 10 | 1016.3 | |
| 20260507183522 | 62 | 0.0 | 0.0 | 0.00 | 0.00 | 0.00 | 10 | 1016.0 | |
| 20260507182623 | 62 | 0.0 | 0.0 | 0.00 | 0.00 | 0.00 | 10 | 1016.0 | |
| 20260507181723 | 62 | 0.0 | 0.0 | 0.00 | 0.00 | 0.00 | 10 | 1016.0 | |
| 20260507180823 | 63 | 0.0 | 0.0 | 0.00 | 0.00 | 0.00 | 10 | 1015.7 | |
| 20260507175922 | 63 | 0.0 | 0.0 | 0.00 | 0.00 | 0.00 | 10 | 1015.6 | |
| 20260507175022 | 63 | 0.0 | 0.0 | 0.00 | 0.00 | 0.00 | 10 | 1015.7 | |
| 20260507174123 | 64 | 0.0 | 0.0 | 0.00 | 0.00 | 0.00 | 10 | 1015.5 | |
| 20260507173223 | 65 | 0.0 | 0.0 | 0.00 | 0.00 | 0.00 | 10 | 1015.4 | |
| 20260507172323 | 65 | 0.0 | 0.0 | 0.00 | 0.00 | 0.00 | 10 | 1015.4 | |
| 20260507171422 | 66 | 0.0 | 0.0 | 0.00 | 0.00 | 0.00 | 10 | 1015.3 | |
| 20260507170523 | 66 | 0.0 | 0.0 | 0.00 | 0.00 | 0.00 | 10 | 1015.0 | |
| 20260507165625 | 66 | 0.0 | 0.0 | 0.00 | 0.00 | 0.00 | 10 | 1015.3 | |
| 20260507164723 | 66 | 0.0 | 0.0 | 0.00 | 0.00 | 0.00 | 10 | 1015.2 | |
| 20260507163822 | 66 | 0.0 | 0.0 | 0.00 | 0.00 | 0.00 | 10 | 1015.3 | |
| 20260507162925 | 66 | 0.0 | 0.0 | 0.00 | 0.00 | 0.00 | 10 | 1015.3 | |
| 20260507162023 | 66 | 0.0 | 0.0 | 0.00 | 0.00 | 0.00 | 10 | 1015.2 | |
| 20260507161123 | 67 | 0.0 | 0.0 | 0.00 | 0.00 | 0.00 | 10 | 1015.0 | |
| 20260507160223 | 67 | 0.0 | 0.0 | 0.00 | 0.00 | 0.00 | 10 | 1014.9 | |
| 20260507155323 | 67 | 0.0 | 0.0 | 0.00 | 0.00 | 0.00 | 10 | 1014.9 | |
| 20260507154422 | 67 | 0.0 | 0.0 | 0.00 | 0.00 | 0.00 | 97 | 1014.9 | |
| 20260507153522 | 69 | 0.0 | 0.0 | 0.00 | 0.00 | 0.00 | 84 | 1014.5 | |
| 20260507152638 | 69 | 0.0 | 0.0 | 0.00 | 0.00 | 0.00 | 83 | 1014.5 | |
| 20260507151722 | 69 | 0.0 | 0.0 | 0.00 | 0.00 | 0.00 | 84 | 1014.6 | |
| 20260507150823 | 69 | 0.0 | 0.0 | 0.00 | 0.00 | 0.00 | 83 | 1014.5 | |
| 20260507145922 | 70 | 0.0 | 0.0 | 0.00 | 0.00 | 0.00 | 69 | 1014.4 | |
| 20260507145023 | 70 | 0.0 | 0.0 | 0.00 | 0.00 | 0.00 | 66 | 1014.4 | |
| 20260507144123 | 71 | 0.0 | 0.0 | 0.00 | 0.00 | 0.00 | 65 | 1014.3 | |
| 20260507143222 | 71 | 0.0 | 0.0 | 0.00 | 0.00 | 0.00 | 65 | 1014.2 | |
| 20260507142329 | 71 | 0.0 | 0.0 | 0.00 | 0.00 | 0.00 | 64 | 1014.3 | |
| 20260507141439 | 71 | 0.0 | 0.0 | 0.00 | 0.00 | 0.00 | 63 | 1014.2 | |
| 20260507140523 | 71 | 0.0 | 0.0 | 0.00 | 0.00 | 0.00 | 62 | 1014.1 | |
| 20260507135622 | 72 | 0.0 | 0.0 | 0.00 | 0.00 | 0.00 | 61 | 1014.0 | |
| 20260507134722 | 72 | 0.0 | 0.0 | 0.00 | 0.00 | 0.00 | 60 | 1013.9 | |
| 20260507133822 | 73 | 0.0 | 0.0 | 0.00 | 0.00 | 0.00 | 61 | 1013.7 | |
| 20260507132923 | 73 | 0.0 | 0.0 | 0.00 | 0.00 | 0.00 | 61 | 1013.7 | |
| 20260507132022 | 72 | 0.0 | 0.0 | 0.00 | 0.00 | 0.00 | 59 | 1013.8 | |
| 20260507131122 | 72 | 0.0 | 0.0 | 0.00 | 0.00 | 0.00 | 58 | 1013.9 | |
| 20260507130223 | 72 | 0.0 | 0.0 | 0.00 | 0.00 | 0.00 | 58 | 1014.1 | |
| 20260507125322 | 72 | 0.0 | 0.0 | 0.00 | 0.00 | 0.00 | 58 | 1014.0 | |
| 20260507124422 | 72 | 0.0 | 0.0 | 0.00 | 0.00 | 0.00 | 57 | 1014.1 | |
| 20260507123522 | 72 | 0.0 | 0.0 | 0.00 | 0.00 | 0.00 | 56 | 1014.1 | |
| 20260507122622 | 72 | 0.0 | 0.0 | 0.00 | 0.00 | 0.00 | 55 | 1014.1 | |
| 20260507121722 | 73 | 0.0 | 0.0 | 0.00 | 0.00 | 0.00 | 54 | 1014.0 | |
| 20260507120822 | 73 | 0.0 | 0.0 | 0.00 | 0.00 | 0.00 | 52 | 1013.8 | |
| 20260507115922 | 75 | 0.0 | 0.0 | 0.00 | 0.00 | 0.00 | 51 | 1013.6 | |
| 20260507115022 | 76 | 0.0 | 0.0 | 0.00 | 0.00 | 0.00 | 48 | 1013.4 | |
| 20260507114138 | 76 | 0.0 | 0.0 | 0.00 | 0.00 | 0.00 | 49 | 1013.5 | |
| 20260507113223 | 77 | 0.0 | 0.0 | 0.00 | 0.00 | 0.00 | 48 | 1013.2 | |
| 20260507112323 | 78 | 0.0 | 0.0 | 0.00 | 0.00 | 0.00 | 44 | 1013.1 | |
| 20260507111423 | 78 | 0.0 | 0.0 | 0.00 | 0.00 | 0.00 | 47 | 1013.1 | |
| 20260507110522 | 75 | 0.0 | 0.0 | 0.00 | 0.00 | 0.00 | 48 | 1013.6 | |
| 20260507105622 | 74 | 0.0 | 0.0 | 0.00 | 0.00 | 0.00 | 51 | 1013.8 | |
| 20260507104738 | 74 | 0.0 | 0.0 | 0.00 | 0.00 | 0.00 | 49 | 1013.8 | |
| 20260507103823 | 75 | 0.0 | 0.0 | 0.00 | 0.00 | 0.00 | 50 | 1013.7 | |
| 20260507102922 | 75 | 0.0 | 0.0 | 0.00 | 0.00 | 0.00 | 48 | 1013.6 | |
| 20260507102022 | 75 | 0.0 | 0.0 | 0.00 | 0.00 | 0.00 | 50 | 1013.6 | |
| 20260507101122 | 76 | 0.0 | 0.0 | 0.00 | 0.00 | 0.00 | 48 | 1013.5 | |
| 20260507100223 | 76 | 0.0 | 0.0 | 0.00 | 0.00 | 0.00 | 48 | 1013.5 | |
| 20260507095337 | 76 | 0.0 | 0.0 | 0.00 | 0.00 | 0.00 | 49 | 1013.5 | |
| 20260507094422 | 77 | 0.0 | 0.0 | 0.00 | 0.00 | 0.00 | 44 | 1013.2 | |
| 20260507093522 | 77 | 0.0 | 0.0 | 0.00 | 0.00 | 0.00 | 44 | 1013.2 | |
| 20260507092622 | 77 | 0.0 | 0.0 | 0.00 | 0.00 | 0.00 | 43 | 1013.3 | |
| 20260507091724 | 77 | 0.0 | 0.0 | 0.00 | 0.00 | 0.00 | 43 | 1013.3 | |
| 20260507090822 | 77 | 0.0 | 0.0 | 0.00 | 0.00 | 0.00 | 42 | 1013.4 | |
| 20260507085922 | 77 | 0.0 | 0.0 | 0.00 | 0.00 | 0.00 | 41 | 1013.4 | |
| 20260507085022 | 76 | 0.0 | 0.0 | 0.00 | 0.00 | 0.00 | 42 | 1013.4 | |
| 20260507084122 | 77 | 0.0 | 0.0 | 0.00 | 0.00 | 0.00 | 42 | 1013.4 | |
| 20260507083223 | 76 | 0.0 | 0.0 | 0.00 | 0.00 | 0.00 | 43 | 1013.5 | |
| 20260507082322 | 76 | 0.0 | 0.0 | 0.00 | 0.00 | 0.00 | 44 | 1013.4 | |
| 20260507081423 | 76 | 0.0 | 0.0 | 0.00 | 0.00 | 0.00 | 42 | 1013.4 | |
| 20260507080522 | 77 | 0.0 | 0.0 | 0.00 | 0.00 | 0.00 | 41 | 1013.4 | |
| 20260507075622 | 77 | 0.0 | 0.0 | 0.00 | 0.00 | 0.00 | 42 | 1013.4 | |
| 20260507074737 | 78 | 0.0 | 0.0 | 0.00 | 0.00 | 0.00 | 41 | 1013.2 | |
| 20260507073838 | 79 | 0.0 | 0.0 | 0.00 | 0.00 | 0.00 | 40 | 1013.0 | |
| 20260507072922 | 81 | 0.0 | 0.0 | 0.00 | 0.00 | 0.00 | 37 | 1012.7 | |
| 20260507072022 | 79 | 0.0 | 0.0 | 0.00 | 0.00 | 0.00 | 39 | 1012.9 | |
| 20260507071138 | 79 | 0.0 | 0.0 | 0.00 | 0.00 | 0.00 | 35 | 1012.8 | |
| 20260507070222 | 85 | 0.0 | 0.0 | 0.00 | 0.00 | 0.00 | 38 | 1012.1 | |
| 20260507065322 | 83 | 0.0 | 0.0 | 0.00 | 0.00 | 0.00 | 40 | 1012.5 | |
| 20260507064422 | 85 | 0.0 | 0.0 | 0.00 | 0.00 | 0.00 | 39 | 1012.0 | |
| 20260507063537 | 86 | 0.0 | 0.0 | 0.00 | 0.00 | 0.00 | 39 | 1012.0 | |
| 20260507062622 | 86 | 0.0 | 0.0 | 0.00 | 0.00 | 0.00 | 39 | 1012.0 | |
| 20260507061722 | 82 | 0.0 | 0.0 | 0.00 | 0.00 | 0.00 | 44 | 1012.6 | |
| 20260507060822 | 83 | 0.0 | 0.0 | 0.00 | 0.00 | 0.00 | 41 | 1012.4 | |
| 20260507055922 | 85 | 0.0 | 0.0 | 0.00 | 0.00 | 0.00 | 41 | 1012.1 | |
| 20260507055038 | 80 | 0.0 | 0.0 | 0.00 | 0.00 | 0.00 | 47 | 1012.7 | |
| 20260507054138 | 82 | 0.0 | 0.0 | 0.00 | 0.00 | 0.00 | 49 | 1012.5 | |
| 20260507053237 | 72 | 0.0 | 0.0 | 0.00 | 0.00 | 0.00 | 70 | 1013.7 | |
| 20260507052338 | 70 | 0.0 | 0.0 | 0.00 | 0.00 | 0.00 | 70 | 1014.0 | |
| 20260507051423 | 65 | 0.0 | 0.0 | 0.00 | 0.00 | 0.00 | 77 | 1014.7 | |
| 20260507050522 | 67 | 0.0 | 0.0 | 0.00 | 0.00 | 0.00 | 70 | 1014.6 | |
| 20260507045622 | 65 | 0.0 | 0.0 | 0.00 | 0.00 | 0.00 | 76 | 1014.8 | |
| 20260507044722 | 60 | 0.0 | 0.0 | 0.00 | 0.00 | 0.00 | 83 | 1015.4 | |
| 20260507043822 | 58 | 0.0 | 0.0 | 0.00 | 0.00 | 0.00 | 99 | 1015.6 | |
| 20260507042922 | 56 | 0.0 | 0.0 | 0.00 | 0.00 | 0.00 | 10 | 1015.8 | |
| 20260507042022 | 55 | 0.0 | 0.0 | 0.00 | 0.00 | 0.00 | 10 | 1016.0 | |
| 20260507041138 | 54 | 0.0 | 0.0 | 0.00 | 0.00 | 0.00 | 10 | 1016.1 | |
| 20260507040222 | 54 | 0.0 | 0.0 | 0.00 | 0.00 | 0.00 | 10 | 1015.9 | |
| 20260507035322 | 54 | 0.0 | 0.0 | 0.00 | 0.00 | 0.00 | 10 | 1015.8 | |
| 20260507034422 | 54 | 0.0 | 0.0 | 0.00 | 0.00 | 0.00 | 10 | 1015.9 | |
| 20260507033522 | 54 | 0.0 | 0.0 | 0.00 | 0.00 | 0.00 | 10 | 1015.9 | |
| 20260507032637 | 53 | 0.0 | 0.0 | 0.00 | 0.00 | 0.00 | 10 | 1015.9 | |
| 20260507031723 | 54 | 0.0 | 0.0 | 0.00 | 0.00 | 0.00 | 10 | 1015.7 | |
| 20260507030837 | 53 | 0.0 | 0.0 | 0.00 | 0.00 | 0.00 | 10 | 1015.8 | |
| 20260507025923 | 54 | 0.0 | 0.0 | 0.00 | 0.00 | 0.00 | 10 | 1015.7 | |
| 20260507025023 | 54 | 0.0 | 0.0 | 0.00 | 0.00 | 0.00 | 10 | 1015.7 | |
| 20260507024138 | 54 | 0.0 | 0.0 | 0.00 | 0.00 | 0.00 | 10 | 1015.6 | |
| 20260507023223 | 53 | 0.0 | 0.0 | 0.00 | 0.00 | 0.00 | 10 | 1015.6 | |
| 20260507022322 | 54 | 0.0 | 0.0 | 0.00 | 0.00 | 0.00 | 10 | 1015.5 | |
| 20260507021422 | 54 | 0.0 | 0.0 | 0.00 | 0.00 | 0.00 | 10 | 1015.5 | |
| 20260507020522 | 55 | 0.0 | 0.0 | 0.00 | 0.00 | 0.00 | 10 | 1015.3 | |
| 20260507015622 | 55 | 0.0 | 0.0 | 0.00 | 0.00 | 0.00 | 10 | 1015.2 | |
| 20260507014722 | 56 | 0.0 | 0.0 | 0.00 | 0.00 | 0.00 | 10 | 1015.1 | |
| 20260507013853 | 56 | 0.0 | 0.0 | 0.00 | 0.00 | 0.00 | 10 | 1015.1 | |
| 20260507012923 | 56 | 0.0 | 0.0 | 0.00 | 0.00 | 0.00 | 10 | 1015.0 | |
| 20260507012022 | 57 | 0.0 | 0.0 | 0.00 | 0.00 | 0.00 | 93 | 1014.9 | |
| 20260507011122 | 58 | 0.0 | 0.0 | 0.00 | 0.00 | 0.00 | 92 | 1014.7 | |
| 20260507010222 | 56 | 0.0 | 0.0 | 0.00 | 0.00 | 0.00 | 10 | 1015.0 | |
| 20260507005322 | 55 | 0.0 | 0.0 | 0.00 | 0.00 | 0.00 | 10 | 1015.1 | |
| 20260507004438 | 55 | 0.0 | 0.0 | 0.00 | 0.00 | 0.00 | 10 | 1015.0 | |
| 20260507003523 | 54 | 0.0 | 0.0 | 0.00 | 0.00 | 0.00 | 10 | 1015.0 | |
| 20260507002638 | 54 | 0.0 | 0.0 | 0.00 | 0.00 | 0.00 | 10 | 1014.9 |